Regional Weather Roundup
Issued by NWS Pendleton, OR

Home | Current Version | Previous Version | Text Only | Print | Product List | Glossary On
Versions: 1 2 3 4 5 6 7 8 9 10 11 12 13 14 15 16 17 18 19 20 21 22 23 24 25 26 27 28 29 30 31 32 33 34 35 36 37 38 39 40 41 42 43 44 45 46 47 48 49 50
000
ASUS46 KPDT 281510
RWRPDT
PENDLETON REGIONAL WEATHER ROUNDUP
NATIONAL WEATHER SERVICE PENDLETON OREGON
800 AM PDT MON JUL 28 2014

NOTE: FAIR INDICATES FEW OR NO CLOUDS BELOW 12,000 FEET WITH NO
SIGNIFICANT WEATHER AND/OR OBSTRUCTIONS TO VISIBILITY.

# INDICATES UNOFFICIAL STATION AND DATA

WAZ520-281610-
EAST SLOPES OF WASHINGTON CASCADES

CITY            SKY/WX      TMP DP  RH  WIND    PRES   REMARKS
#BUMPING DAM    N/A         52  N/A N/A CALM    N/A
#CLE ELUM HS    N/A         60  53  78  CALM    30.06F
#CLE ELUM LAKE  N/A         64  49  58  CALM    29.98S
#CLIFFDEL 2NW   N/A         55  50  83  CALM    N/A
#EASTON DOT     N/A         59  54  83  CALM    N/A
#ELK HTS DOT    N/A         60  60  100 W2      N/A
#GLENWOOD       N/A         56  54  93  CALM    30.02F
#MANASTASH CYN  N/A         65  46  50  CALM    30.10F
#NELSON         N/A         58  56  93  CALM    30.04S
#NELSON 3SW     N/A         63  55  75  CALM    30.20S
#PEOH POINT     N/A         65  49  56  W7      N/A
#RONALD 2NW     N/A         60  51  72  CALM    30.02S
#SOUTH BLEWITT  N/A         51  48  89  CALM    N/A
#TROUT LAKE 1NE N/A         61  53  75  CALM    30.02R
$$

WAZ521-281610-
SIMCOE HIGHLANDS

CITY            SKY/WX      TMP DP  RH  WIND    PRES   REMARKS
#BICKLETON HS   N/A         78  36  22  VRB3    30.15S
#SATUS PASS DOT N/A         68  37  32  CALM    N/A
#CENTERVILLE 1SWN/A         62  52  70  CALM    29.98S
#GOLDENDALE 1NE N/A         64  43  46  CALM    N/A
#GOLDENDALE 1S  N/A         63  49  60  CALM    30.05S
#GOLDENDALE 5WNWN/A         66  51  58  CALM    29.98S
#GOODNOE HILLS  N/A         73  59  62  W12     29.99S
#LYLE 6NE       N/A         64  60  87  CALM    29.97S
$$

WAZ026-281610-
KITTITAS VALLEY

CITY            SKY/WX      TMP DP  RH  WIND    PRES   REMARKS
ELLENSBURG AP   SUNNY       69  57  66  E5      30.10R
#ELLENSBURG CWU N/A         67  56  68  N1      29.97S
#ELLENSBURG 3NE N/A         64  58  81  CALM    30.09S
#KITTITAS 3S    N/A         62  58  87  CALM    30.01R
#RYEGRASS DOT   N/A         64  56  75  W7      N/A
#THORP 6N       N/A         66  51  58  N7      30.01S
$$

WAZ027-281610-
YAKIMA VALLEY

CITY            SKY/WX      TMP DP  RH  WIND    PRES   REMARKS
YAKIMA AIRPORT  SUNNY       73  53  49  W7      30.07R
YAKIMA-VAGABOND SUNNY       74  53  48  N5      30.08S
#COWICHE 1N     N/A         70  52  53  N5      30.20R
#DONALD 2NE     N/A         87  53  31  CALM    30.36R
#GRANDVIEW      N/A         71  54  55  CALM    30.00S
#MABTON         N/A         68  61  78  CALM    30.03R
#MOXEE 2E       N/A         76  44  32  CALM    29.95F
#NACHES 2SW     N/A         71  54  55  W5      30.06S
#TERRACE HTS    N/A         68  56  65  CALM    29.95S
#TOPPENISH      N/A         71  56  59  CALM    29.91S
#WAPATO 4NE     N/A         88  54  31  CALM    30.36R
#WEST VALLEY    N/A         70  54  57  CALM    29.98S
#W YAKIMA       N/A         74  55  51  N2      29.99R
#WHITE SWAN 5E  N/A         68  59  73  CALM    29.99S
#WILEY CITY 3W  N/A         69  55  61  CALM    30.06R
$$

WAZ028-281610-
LOWER COLUMBIA BASIN...WASHINGTON

CITY            SKY/WX      TMP DP  RH  WIND    PRES   REMARKS
HANFORD         MOSUNNY     82  50  33  NW10    29.99S
PASCO           PTCLDY      73  57  57  CALM    30.02R
PROSSER AWOS    N/A         73  61  66  SW2     30.06R
RICHLAND AWOS   PTCLDY      77  52  42  CALM    30.01S
#BENTON CITY    N/A         76  56  50  CALM    29.89R
#CONNELL 5N     N/A         78  46  32  N1      29.96S
#CONNELL 5NW    N/A         73  44  35  NW2     29.93S
#ELTOPIA        N/A         73  55  53  W1      29.95R
#KENNEWICK 3S   N/A         75  52  45  CALM    29.98S
#PASCO-BROADMOORN/A         82  58  44  CALM    29.87S
#PATERSON       N/A         68  58  70  CALM    29.98R
#PROSSER DOT    N/A         69  58  68  SW1     N/A
#PROSSER        N/A         72  52  49  W1      29.98R
#SAGEMOOR 2W    N/A         77  56  48  CALM    29.84R
#TOUCHET 2S     N/A         72  57  59  NE1     29.97R
#WEST PASCO     N/A         76  59  56  CALM    29.99R
$$

WAZ029-281610-
FOOTHILLS OF THE BLUES...WASHINGTON

CITY            SKY/WX      TMP DP  RH  WIND    PRES   REMARKS
WALLA WALLA AP  MOCLDY      76  46  34  S12     30.06R
#COLLEGE PLACE  N/A         73  50  44  E2      30.01R
#DAYTON SCHOOL  N/A         70  45  41  CALM    30.02F
#LOWDEN 2SE     N/A         70  56  61  SW2     29.98R
#PLEASANT VIEW 1N/A         82  43  25  CALM    29.98S
#PRESCOTT       N/A         77  53  43  CALM    29.94F
#SUDBURY        N/A         75  N/A N/A CALM    N/A
#WHITMAN COLLEGEN/A         72  51  48  E2      30.04R
#WAITSBURG 8N   N/A         85  29  13  CALM    29.88S
#WALLA WALLA 5E N/A         77  46  33  S15     N/A
#WHITMAN MISSIONN/A         70  55  59  CALM    30.00R
$$

WAZ030-281610-
BLUE MOUNTAINS...WASHINGTON

CITY            SKY/WX      TMP DP  RH  WIND    PRES   REMARKS
$$

ORZ009-041-WAZ024-281610-
COLUMBIA RIVER GORGE

CITY            SKY/WX      TMP DP  RH  WIND    PRES   REMARKS
HOOD RIVER AP   SUNNY       63  54  72  S3      30.07S
THE DALLES AP   SUNNY       71  60  68  NW8     30.03S
#ARLINGTON AIRPON/A         74  58  57  W13     N/A
#ARLINGTON HS   N/A         78  58  50  CALM    29.90R
#CELILO DOT     N/A         74  58  57  S1      N/A
#MARYHILL       N/A         69  58  68  CALM    N/A
#MOSIER 1S      N/A         66  56  70  CALM    30.12S
#MURDOCK        N/A         71  62  73  W13     30.04R
#RUFUS DOT      N/A         N/A N/A N/A SE2     N/A

$$

ORZ510-281610-
NORTH CENTRAL OREGON

CITY            SKY/WX      TMP DP  RH  WIND    PRES   REMARKS
#CHENOWITH 1W   N/A         66  56  70  NW12    N/A
#COW CYN RST AREN/A         72  41  33  S1      N/A
#DUFUR 9E       N/A         74  49  41  CALM    30.01R
#GRASS VALLEY 1SN/A         70  45  41  SW2     30.01S
#KENT DOT       N/A         73  40  30  SW6     N/A
#MAUPIN SCHOOL  N/A         67  47  49  CALM    30.10S
#MORO SCHOOL    N/A         73  56  55  S1      30.09R
#SHANIKO 5WSW   N/A         72  36  27  S3      N/A
#SHANIKO 4NW    N/A         75  37  25  CALM    30.18R
#TYGH VALLEY 2NEN/A         64  49  58  CALM    30.02R
#WAPANITIA AIRPON/A         73  50  44  CALM    30.01S
#WASCO DOT      N/A         74  53  48  CALM    N/A
#WASCO 5NE      N/A         71  55  57  W7      29.97F
$$

ORZ511-281610-
CENTRAL OREGON

CITY            SKY/WX      TMP DP  RH  WIND    PRES   REMARKS
BEND AIRPORT    SUNNY       66  45  47  SW7     30.20R
MADRAS AIRPORT  SUNNY       68  45  44  S6      30.15S
REDMOND AIRPORT SUNNY       66  42  42  E3      30.17R
#BEND 6E        N/A         68  45  44  CALM    29.95S
#BEND 1SW       N/A         61  43  51  W3      N/A
#BEND-AWBREY    N/A         65  47  52  N3      30.00S
#BEND-KIM LN    N/A         62  48  60  SW6     30.16R
#CROOKED RVR RANN/A         68  47  47  SW1     30.00S
#CULVER         N/A         64  48  56  CALM    30.11S
#LAKE BILLY CHINN/A         66  19  16  CALM    30.17S
#POWELL BUTTE 3EN/A         61  44  53  CALM    N/A
#POWELL BUTTE   N/A         78  53  42  N1      29.81S
#PRINEVILLE 3N  N/A         61  48  62  CALM    29.99R


ORZ509-281610-
EAST SLOPES OF OREGON CASCADES

CITY            SKY/WX      TMP DP  RH  WIND    PRES   REMARKS
#BLUE BOX PASS  N/A         66  11  11  CALM    N/A
#BLACK BUTTE RNCN/A         52  48  86  CALM    30.02S
#CAMP SHERMAN   N/A         46  44  93  CALM    30.10R
#LA PINE DOT    N/A         57  40  53  CALM    N/A
#LA PINE 4NW    N/A         53  44  71  CALM    30.09S
#LAVA BUTTE DOT N/A         60  45  58  SE1     N/A
#SISTERS AIRPOR N/A         63  55  75  CALM    30.15S
#SISTERS ODOT   N/A         66  N/A N/A CALM    N/A
#SISTERS 3N     N/A         57  50  77  CALM    N/A
#SUNRIVER       N/A         55  47  74  S1      29.94R
#SUNRIVER AP    N/A         53  47  80  CALM    30.01S
#SUTTLE LK DOT  N/A         54  47  77  CALM    N/A
#TUMALO 3W      N/A         72  44  37  CALM    29.88S
#WANOGA BUTTE D N/A         68  37  32  W3      N/A

$$

ORZ044-281610-
LOWER COLUMBIA BASIN...OREGON

CITY            SKY/WX      TMP DP  RH  WIND    PRES   REMARKS
HERMISTON       PTCLDY      74  50  43  N5      30.02R
#BOARDMAN SCHOOLN/A         78  61  56  CALM    30.00R
#BOARDMAN 3W    N/A         76  63  64  S2      29.74R
#BOARDMAN 8SW   N/A         73  59  62  SW3     29.99R
#IONE SCHOOL    N/A         68  45  44  CALM    30.03S
#IRRIGON 4NW    N/A         67  56  68  E3      N/A
#UMATILLA SCHOOLN/A         69  59  70  CALM    30.07R
#UMATILLA       N/A         70  54  57  CALM    30.00R
$$

ORZ507-281610-
NORTHERN FOOTHILLS OF THE BLUES

CITY            SKY/WX      TMP DP  RH  WIND    PRES   REMARKS
PENDLETON AIRPT MOCLDY      73  44  35  S6      30.06R
#ADAMS 3WNW     N/A         72  47  41  N5      29.95F
#ATHENA         N/A         73  48  41  CALM    30.00R
#HELIX SCHOOL   N/A         72  46  39  CALM    29.98R
#HELIX 3N       N/A         73  42  33  S8      30.05R
#HOLDMAN 5SE    N/A         72  46  39  CALM    30.05S
#HOLDMAN 6E     N/A         73  46  38  CALM    29.78R
#M-F FERNDALE   N/A         69  54  59  CALM    30.03R
#M-F GROVE ELEM N/A         79  40  25  SW7     30.04R
#M-FREEWATER 5SEN/A         72  57  59  CALM    30.05R
#PDT AQUATIC CTRN/A         70  48  46  NE5     29.98F
#PENDLETON DNTN N/A         70  46  42  SW3     29.98S
#PENDLETON 5NE  N/A         72  50  46  CALM    29.99F
#PDT SUNRIDGE   N/A         73  50  44  CALM    30.06R
#PENDLETON 7NW  N/A         69  48  47  CALM    28.79R
#PILOT ROCK     N/A         79  42  27  CALM    30.09F
#TUTUILLA       N/A         77  51  40  W1      29.93S
#UMAPINE 2E     N/A         72  57  59  CALM    30.00R
#WESTON SCHOOL  N/A         77  38  24  S2      30.03F

$$

ORZ508-281610-
SOUTHERN FOOTHILLS OF THE BLUES

CITY            SKY/WX      TMP DP  RH  WIND    PRES   REMARKS
#AJAX           N/A         N/A N/A N/A SW2     30.12S
#CONDON SCHOOL  N/A         73  46  38  CALM    30.09S
#CONDON 5W      N/A         73  41  31  CALM    30.13R
#HEPPNER EOC    N/A         70  42  36  SE6     29.93R
#HEPPNER 4NE    N/A         71  41  34  CALM    29.97R
#LEXINGTON 2SE  N/A         73  47  40  SE6     30.03S
#MIKKALO        N/A         77  44  31  W5      30.07R
#OLEX 4N        N/A         73  46  38  SW7     30.03R
#RUGGS 5NE      N/A         69  39  33  CALM    30.30S
#RUGGS 2SW      N/A         76  41  28  S3      30.02R

$$

ORZ502-503-281610-
BLUE MOUNTAINS

CITY            SKY/WX      TMP DP  RH  WIND    PRES   REMARKS
MEACHAM         MOCLDY      64  52  65  CALM    30.20R
#BATTLE MTN DOT N/A         68  48  49  S1      N/A
#HARDMAN 10S    N/A         68  41  37  CALM    30.24R
#HEPPNER 15SE   N/A         67  47  49  CALM    30.13R
#LADD CYN SMT   N/A         79  39  24  NW7     N/A
#LADD CREEK ODOTN/A         72  49  44  S1      N/A
#LONG CREEK HS  N/A         73  44  35  CALM    30.12F
#PIKES PEAK     N/A         73  39  29  SW13    27.99S
#TOLLGATE 9W    N/A         66  50  56  E3      N/A
#TROY SCHOOL    N/A         69  50  51  CALM    29.85F
#UKIAH          N/A         65  48  54  N1      30.03F
#WESTON 4E      N/A         71  42  35  SE2     29.92R
$$

ORZ505-281610-
JOHN DAY BASIN

CITY            SKY/WX      TMP DP  RH  WIND    PRES   REMARKS
JOHN DAY        PTCLDY      73  43  34  E5      30.19S
#JOHN DAY KJDY  N/A         76  48  37  CALM    30.20R
#MONUMENT HS    N/A         70  46  42  NW1     29.86R
#MT. VERNON 5SE N/A         73  41  31  E1      30.15S
#WINLOCK        N/A         72  45  38  CALM    30.22R
$$

ORZ506-281610-
OCHOCO AND JOHN DAY HIGHLANDS

CITY            SKY/WX      TMP DP  RH  WIND    PRES   REMARKS
#BUCK CREEK DOT N/A         72  47  41  CALM    N/A
#HORSE RIDGE DO N/A         62  37  39  CALM    N/A
#KEYES SMT DOT  N/A         73  41  31  NW5     N/A
#PINE MTN OBS   N/A         70  33  25  S2      N/A
#PRAIRIE CITY   N/A         69  50  51  CALM    30.06F
#SENECA 9NW     N/A         65  44  46  CALM    29.91S
$$

ORZ049-281610-
GRANDE RONDE VALLEY

CITY            SKY/WX      TMP DP  RH  WIND    PRES   REMARKS
LA GRANDE       MOCLDY      73  43  34  E3      30.12R
#COVE           N/A         73  52  48  CALM    30.03R
#COVE SCHOOL    N/A         71  50  47  CALM    30.10R
#COVE 6NW       N/A         68  48  49  W1      30.00R
#ELGIN 3N       N/A         70  48  46  CALM    29.86R
#ELGIN 1E       N/A         67  48  50  CALM    N/A
#IMBLER SCHOOL  N/A         75  47  37  CALM    30.07S
#ISLAND CITY 4N N/A         69  53  57  CALM    29.90S
#LADD CYN DOT   N/A         73  48  41  CALM    N/A
#UNION 1S       N/A         72  48  43  CALM    29.88S
$$

ORZ050-281610-
WALLOWA COUNTY

CITY            SKY/WX      TMP DP  RH  WIND    PRES   REMARKS
#ENTERPRISE AP  N/A         66  35  32  CALM    29.99S
#ENTERPRISE HS  N/A         67  51  56  CALM    30.19S
#IMNAHA 10S     N/A         70  45  41  S6      30.14S
#JOSEPH 3N      N/A         65  52  63  CALM    30.21S
#JOSEPH 3W      N/A         82  40  22  CALM    30.08S
#LOSTINE        N/A         72  51  48  CALM    29.80S
#MT HOWARD 8000 N/A         61  34  36  N6      30.50S
#PROMISE 1S     N/A         68  53  59  CALM    30.06F
#SHEEP RDG 7000 N/A         67  35  30  CALM    29.94S
#WALLOWA SCHOOL N/A         68  49  51  CALM    30.87F



$$



USA.gov is the U.S. government's official web portal to all federal, state and local government web resources and services.